Regional Weather Roundup
Issued by NWS

Home | Current Version | Previous Version | Graphics & Text | Print | Product List | Glossary Off
Versions: 1 2 3 4 5 6 7 8 9 10 11 12 13 14 15 16 17 18 19 20 21 22 23 24 25 26 27 28 29 30 31 32 33 34 35 36 37 38 39 40 41 42 43 44 45 46 47 48 49 50

000
ASUS45 KBOU 040210
RWRCO

WEATHER ROUNDUP FOR COLORADO
NATIONAL WEATHER SERVICE DENVER/BOULDER CO
800 PM MDT FRI JUL 03 2015

NOTE: "FAIR" INDICATES FEW OR NO CLOUDS BELOW 12000 FEET WITH NO
SIGNIFICANT WEATHER AND/OR OBSTRUCTIONS TO VISIBILITY.

COZ001>005-013-030-031-040300-
...NORTHWEST COLORADO...

CITY           SKY/WX    TMP DP  RH WIND       PRES   REMARKS
CRAIG          PTCLDY    86  41  20 NE3       30.03S
HAYDEN         PTCLDY    82  36  18 NE6       30.07S
MEEKER         PTCLDY    80  52  37 W3        30.06R
MOUNT WERNER   NOT AVBL
STEAMBOAT SPGS CLEAR     79  40  24 N3        30.10S
WALDEN         PTCLDY    72  37  28 NW7       30.23R
$$

COZ006>008-011-040300-
...WEST CENTRAL VALLEYS...

CITY           SKY/WX    TMP DP  RH WIND       PRES   REMARKS
GRAND JUNCTION PTCLDY    88  50  27 S23G32    29.93R
MONTROSE       CLOUDY    81  45  28 S5        30.10R THUNDER
EAGLE          PTCLDY    82  46  28 SW12      30.10R
RIFLE          PTCLDY    86  48  26 SE9       29.98S
DELTA          CLOUDY    84  51  31 NE7       30.02S
NUCLA          CLOUDY    77  55  47 E10       30.11S
$$

COZ017>023-064>068-040300-
...SOUTHWEST COLORADO...

CITY           SKY/WX    TMP DP  RH WIND       PRES   REMARKS
DURANGO        CLOUDY    71  44  37 N10       30.22R
CORTEZ         CLEAR     74  50  42 NE10      30.11R
PAGOSA SPRINGS CLOUDY    65  46  49 NE6       30.28F
TELLURIDE      CLOUDY    60  50  69 SE7       30.40R
WOLF CREEK PAS NOT AVBL
$$

COZ009-010-012-014-032>034-037-058>063-040300-
...CENTRAL COLORADO...

CITY           SKY/WX    TMP DP  RH WIND       PRES   REMARKS
ASPEN          PTCLDY    72  46  39 SE12      30.21R
BUENA VISTA    MOCLDY    68  46  45 S8        30.28R
COPPER MTN     MOCLDY    64  32  29 W21       30.58R
BERTHOUD PASS  FAIR      45  34  65 E22G32    30.64R
COTTONWOOD PAS NOT AVBL
GUNNISON       CLOUDY    66  45  45 SW6       30.27R
KREMMLING      PTCLDY    79  23  12 NW8       30.17R
LEADVILLE      MOCLDY    62  43  49 S18       30.39R
MONARCH PASS   CLOUDY    52  43  71 S7        30.69R
SALIDA         MOCLDY    71  47  41 SE12G20   30.32R
SUNLIGHT       PTCLDY    63  43  48 CALM      30.50R
WILKERSON PASS MOCLDY    46  43  87 S9        30.57R
$$

COZ069>075-040300-
...SAN LUIS VALLEY/SANGRE DE CRISTO MOUNTAINS...

CITY           SKY/WX    TMP DP  RH WIND       PRES   REMARKS
ALAMOSA        CLOUDY    62  48  60 SE6       30.26F
LA VETA PASS   RAIN      46  45  93 MISG      30.49R
SAGUACHE       CLOUDY    68  50  52 SE10      30.29R
$$

COZ035-036-038>040-040300-
...NORTHERN COLORADO FRONT RANGE...

CITY           SKY/WX    TMP DP  RH WIND       PRES   REMARKS
DENVER INTL AP MOCLDY    76  56  49 SE8       30.08R
DMNS CITY PARK   N/A     78  51  37 E3        30.07S
AURORA         PTCLDY    76  58  53 E6        30.11R
FRONT RANGE AP MOCLDY    81  55  41 MISG      30.10
ERIE MUNI ARPT PTCLDY    79  57  45 NW3       30.06R
BOULDER MUN AP PTCLDY    79  57  47 CALM      30.07S
CENTENNIAL     MOCLDY    77  55  46 SE6       30.12R
BROOMFIELD     PTCLDY    81  50  34 CALM      30.10R
FORT COLLINS   MOCLDY    79  57  47 E12       30.05R
LONGMONT       MOCLDY    81  58  45 NE6       30.07S
$$

COZ041-046-047-076>085-087-088-040300-
...PIKES PEAK/PALMER DIVIDE AND SOUTHERN FOOTHILLS...

CITY           SKY/WX    TMP DP  RH WIND       PRES   REMARKS
COLO. SPRINGS  TSTM      65  58  78 SW7       30.19F
A. F. ACADEMY  MOCLDY    64  57  78 S8        30.22R
ELLICOTT       CLOUDY   N/A N/A N/A NE6       30.15S THUNDER
FALCON         CLOUDY    62  56  81 W6        30.23F
FORT CARSON    TSTM      63  55  77 NE13      30.19R
LIMON          CLEAR     73  59  61 SE5       30.11R
MONUMENT HILL  NOT AVBL
TRINIDAD       LGT RAIN  63  57  81 SW28G38   30.10F
$$

COZ042>045-048>051-090-091-040300-
...NORTHEAST COLORADO...

CITY           SKY/WX    TMP DP  RH WIND       PRES   REMARKS
GREELEY ARPT   CLOUDY    79  57  47 E9        30.05S
AKRON          MOCLDY    75  61  61 SE8       30.06R
BURLINGTON     MOCLDY    76  58  53 E8        30.04R
WRAY           PTCLDY    81  54  38 E10       30.01R
STERLING       MOCLDY    79  55  44 NE5         N/A
HOLYOKE        CLEAR     79  57  47 E9        30.02R
FORT MORGAN    MOCLDY    74  58  55 NE7       30.05R
$$

COZ086-089-092>099-040300-
...SOUTHEAST COLORADO...

CITY           SKY/WX    TMP DP  RH WIND       PRES   REMARKS
PUEBLO         TSTM      70  58  65 N26G32    30.04R
LA JUNTA       MOCLDY    84  56  38 SE13      30.00R
LAMAR          PTCLDY    82  60  47 SE15G25   29.98R
SPRINGFIELD      N/A     73  59  61 SE21      30.05R
$$


USA.gov is the U.S. government's official web portal to all federal, state and local government web resources and services.